STARLINK-6117 (56130 NORAD) Tracking and Keplerian Element Data

This shows tracking and keplerian element data for the satellite.

Feedback or suggestion? Click here.




ElementValue
Catalog56130
NameSTARLINK-6117
Epoch Orbit656
Epoch Day127.25001157
Epoch Year2023
RAAN33.6976
Inclination43.0012
Eccentricity0.0001578
Argument of Perigee279.892
Mean Anonmoly336.9358
Mean Motion15.48886334
Decay Rate0.00064515
L11 56130U 23046AQ 23127.25001157 .00064515 00000+0 11640-2 0 9990
L22 56130 43.0012 33.6976 0001578 279.8920 336.9358 15.48886334 6563



Live tracking and technical data element details for STARLINK-6117 (NORAD 56130). STARLINK-6117 can be tracked NOW for your location showing map with azimuth and elevation plus other details from your city location.







IsCatalogInMostPopularTable: catalog: 56130, numindb: 4
Update: records affected: 1



GetName: 56130 STARLINK-6117

Hit Count: updated at: Sat, 03 Jun 2023 18:56:45 GMT